Location: Caltech
(34.1382°N, 118.1253°W)
Time: 12:07:33
(UTC-08:00)

CZ-2C R/B - Visible Passes

Search period start: 20 December 2014 00:00
Search period end: 30 December 2014 00:00
Orbit: 670 x 786 km, 98.1° (Epoch: 19 December)

Date Brightness Start Highest point End Pass type
(mag) Time Alt. Az. Time Alt. Az. Time Alt. Az.
20 Dec 5.6 06:15:22 10° ENE 06:17:48 13° E 06:20:14 10° ESE visible
20 Dec 2.4 18:56:51 10° S 19:01:32 76° WSW 19:06:24 10° NNW visible
21 Dec 2.9 18:09:54 10° SE 18:14:05 33° ENE 18:18:24 10° N visible
21 Dec 4.7 19:48:51 10° SW 19:52:23 21° W 19:56:00 10° NW visible
22 Dec 5.6 06:18:06 10° ENE 06:20:53 15° E 06:23:39 10° SE visible
22 Dec 4.1 17:25:57 10° ENE 17:27:00 11° ENE 17:28:03 10° NE visible
22 Dec 2.5 18:59:51 10° S 19:04:33 70° WSW 19:09:26 10° NNW visible
23 Dec 2.8 18:12:46 10° SE 18:17:04 35° ENE 18:21:31 10° N visible
23 Dec 4.8 19:52:01 10° SW 19:55:25 19° W 19:58:54 10° NW visible
24 Dec 5.5 06:20:53 10° NE 06:23:57 16° E 06:26:59 10° SE visible
24 Dec 4.1 17:28:16 10° E 17:29:58 12° ENE 17:31:40 10° NE visible
24 Dec 2.7 19:02:52 10° S 19:07:33 64° W 19:12:27 10° NNW visible
25 Dec 2.8 18:15:39 10° SE 18:20:04 38° ENE 18:24:37 10° N visible
25 Dec 4.9 19:55:12 10° SW 19:58:27 18° W 20:01:47 10° NW visible
26 Dec 5.4 06:23:42 10° NE 06:27:01 17° E 06:30:17 10° SE visible
26 Dec 4.0 17:30:47 10° E 17:32:56 13° ENE 17:35:06 10° NE visible
26 Dec 2.8 19:05:52 10° S 19:10:34 59° W 19:15:28 10° NNW visible
27 Dec 2.7 18:18:33 10° SE 18:23:03 42° ENE 18:27:43 10° N visible
27 Dec 5.0 19:58:25 10° SW 20:01:29 17° W 20:04:38 10° NW visible
28 Dec 5.4 06:26:33 10° NE 06:30:04 18° E 06:33:32 10° SE visible
28 Dec 4.0 17:33:23 10° E 17:35:53 14° ENE 17:38:26 10° NNE visible
28 Dec 3.0 19:08:53 10° S 19:13:35 55° W 19:18:28 10° NNW visible
29 Dec 2.6 18:21:26 10° SE 18:26:02 46° ENE 18:30:48 10° N visible
29 Dec 5.1 20:01:38 10° SW 20:04:31 16° W 20:07:28 10° NW visible
